User: anonymous   Login
Location: Bonny Doon Airfield
(37.0704°N, 122.1252°W)
Time: 16:03:33
(UTC-07:00)
Language:

Tiangong 1 - Orbit

View from above orbital plane
View from above orbital plane
View from above satellite
View from above satellite

Ground track
Ground track

The orbit data is extracted from the following two-line orbital elements,

1 37820U 11053A   17295.86891412  .00043695  88305-5  15597-3 0  9999
2 37820  42.7548 133.5482 0020557 272.8986 219.7716 15.88694478348209
Epoch (UTC): 22 October 2017 20:51:14
Eccentricity: 0.0020557
inclination: 42.7548°
perigee height: 292 km
apogee height: 319 km
right ascension of ascending node: 133.5482°
argument of perigee: 272.8986°
revolutions per day: 15.88694478
mean anomaly at epoch: 219.7716°
orbit number at epoch: 34820

The dashed part of the orbit path shows where the satellite is in the earth's shadow,  

DLR